www.pogodaiklimat.ru

Погода и климат >> Архив погоды >> Индия >> Hissar


ПОГОДА в Hissar

  • Прогноз погоды в Hissar
  • Монитор погоды в Hissar
  • Климат города

АРХИВ ПОГОДЫ в Hissar

Время (UTC), дата Ветер
(напр.,м/с)
 
Видим.   Явления Облачность Т
(С)
Тd
(С)
f
(%)
Тe
(С)
Тes
(С)
Комфортность P
(гПа)
Po
(гПа)
Тmin
(С)
Tmax
(С)
R
(мм)
R24
(мм)
S
(см)
18 12.07 ЮЗ 1 4000 м 10/5 600 м
[Sc diur, vesp Ci fib]
+29.6 +25.1 77 +43 +43 опасность
перегрева
996.0 996.0
21 12.07 ЮЗ 1 4000 м 9/4 600 м
[Sc Ac trans]
+29.0 +25.3 80 +42 +42 опасность
перегрева
995.9 996.0 2
00 13.07 ЮВ 1 4000 м 10/4 600 м
[Sc As op Ci fib]
+28.4 +25.0 82 +41 +41 опасность
перегрева
997.1 997.0 2
03 13.07 Ю 1 4000 м слабый дождь 9/5 1000 м
[Sc Ac trans]
+29.8 +25.6 78 +44 +46 опасность
перегрева
998.4 998.0 +27.4 +40.0 2
06 13.07 Ю 1 4000 м {дождь} 9/6 600 м
[St As op]
+30.8 +26.0 76 +46 +51 опасность
перегрева
999.4 999.0
09 13.07 СЗ 1 4000 м 8/5 1000 м
[Sc Ac trans]
+32.4 +25.7 68 +48 +54 опасность
перегрева
997.4 997.0
12 13.07 СВ 1 4000 м 8/5 1000 м
[Sc Ac trans]
+31.6 +25.4 70 +46 +47 опасность
перегрева
995.9 996.0 +33.0
15 13.07 СВ 1 4000 м 1/0
[Ci fib]
+28.6 +25.2 82 +42 +42 опасность
перегрева
996.5 997.0
18 13.07 СВ 1 4000 м ясно +27.8 +25.5 87 +41 +41 опасность
перегрева
997.9 998.0
21 13.07 штиль 0 4000 м ясно +27.2 +25.5 90 +40 +40 очень
душно
997.7 998.0
00 14.07 штиль 0 2000 м дымка 1/0
[Ci fib]
+26.8 +25.4 92 +39 +39 очень
душно
997.8 998.0
03 14.07 ЮВ 1 4000 м 3/0
[]
+30.4 +25.9 77 +45 +54 опасность
перегрева
998.0 998.0 +25.7 +33.0
06 14.07 СВ 1 4000 м 4/4 600 м
[Cu hum]
+34.6 +25.4 59 +49 +64 опасность
перегрева
997.7 998.0
09 14.07 СВ 2 4000 м 5/4 1000 м
[Cu hum Ac trans]
+36.4 +24.2 50 +48 +58 опасность
перегрева
995.5 996.0
12 14.07 СВ 1 4000 м 3/3 1000 м
[Sc]
+35.2 +25.4 57 +50 +52 опасность
перегрева
993.3 993.0 +37.0
15 14.07 В 2 4000 м 8/3 600 м
[Sc Ac trans]
+30.4 +25.0 73 +44 +44 опасность
перегрева
995.3 995.0
18 14.07 В 1 4000 м 6/0
[Ac trans Ci fib]
+29.4 +26.0 82 +44 +44 опасность
перегрева
996.5 997.0
21 14.07 В 1 4000 м 4/0
[Ac trans]
+28.8 +25.7 83 +43 +43 опасность
перегрева
996.5 997.0
00 15.07 В 1 4000 м 8/3 1000 м
[Sc Ac trans]
+28.0 +25.7 87 +41 +41 опасность
перегрева
996.8 997.0
03 15.07 СВ 1 4000 м 6/3 1000 м
[Sc Ac trans]
+29.4 +26.0 82 +44 +49 опасность
перегрева
997.5 998.0 +26.8 +37.0
06 15.07 В 1 4000 м 5/5 1000 м
[Sc]
+34.6 +24.4 56 +47 +60 опасность
перегрева
996.5 997.0
09 15.07 ЮВ 1 4000 м 3/3 600 м
[Cu med, cong]
+36.8 +24.7 50 +49 +63 опасность
перегрева
994.8 995.0
12 15.07 ЮВ 1 4000 м 3/3 600 м
[Cu med, cong]
+36.6 +24.5 50 +49 +52 опасность
перегрева
992.9 993.0 +37.7
15 15.07 В 1 4000 м 5/0
[Ac trans Ci fib]
+34.4 +25.1 59 +48 +48 опасность
перегрева
994.7 995.0
18 15.07 ЮВ 1 4000 м ясно +32.2 +26.7 73 +50 +50 опасность
перегрева
996.2 996.0
00 16.07 ЮВ 1 4000 м 9/3 1000 м
[Sc Ac trans Ci fib]
+30.0 +26.4 81 +46 +46 опасность
перегрева
997.5 998.0
03 16.07 ЮВ 2 4000 м 1/0
[Ci fib]
+32.0 +27.0 75 +50 +58 опасность
перегрева
997.8 998.0 +28.8 +37.7
06 16.07 ЮВ 1 4000 м 5/5 1000 м
[Sc]
+29.6 +26.6 84 +46 +46 опасность
перегрева
997.2 997.0
09 16.07 С 1 2000 м гроза, ливневой дождь 10/5 600 м
[Cb calv As op Ci sp]
+26.8 +26.2 97 +41 +46 опасность
перегрева
997.5 998.0 11
12 16.07 С 1 2000 м слабый дождь {гроза} 10/4 600 м
[Sc As op]
+27.8 +27.2 97 +44 +45 опасность
перегрева
995.0 995.0 +36.7 12
15 16.07 СВ 1 4000 м 8/5 1000 м
[Sc Ac trans]
+28.4 +27.3 94 +45 +45 опасность
перегрева
995.9 996.0 12
18 16.07 СВ 1 4000 м 8/5 1000 м
[Sc Ac trans]
+28.0 +26.9 94 +44 +44 опасность
перегрева
997.1 997.0 12
21 16.07 ЮВ 1 4000 м 5/5 1000 м
[Sc]
+28.4 +26.7 91 +44 +44 опасность
перегрева
997.7 998.0 12
00 17.07 ЮВ 1 4000 м {гроза, дождь} 9/5 600 м
[Sc As op]
+28.2 +26.7 92 +44 +44 опасность
перегрева
998.0 998.0 12
03 17.07 В 1 4000 м в посл. час дождь {гроза} 9/6 600 м
[St As op]
+26.0 +25.1 95 +37 +39 очень
душно
998.8 999.0 +24.6 +36.7 13
06 17.07 В 1 4000 м {гроза, дождь} 9/6 600 м
[St Ac As]
+29.4 +26.9 86 +46 +50 опасность
перегрева
999.6 1000.0
09 17.07 СВ 1 4000 м 9/9 600 м
[Sc diur, vesp]
+26.2 997.1 997.0
12 17.07 СВ 1 4000 м 6/0
[Ci fib]
+33.4 +25.8 65 +49 +52 опасность
перегрева
995.3 995.0 +33.9
15 17.07 СВ 1 4000 м 4/3 1000 м
[Sc Ac trans]
+31.2 +28.2 84 +52 +52 опасность
перегрева
997.2 997.0
18 17.07 СВ 1 4000 м ясно +30.0 +27.8 88 +49 +49 опасность
перегрева
998.0 998.0
21 17.07 штиль 0 4000 м 6/3 1000 м
[Sc Ac trans]
+29.4 +28.0 92 +49 +49 опасность
перегрева
997.7 998.0
00 18.07 штиль 0 4000 м в посл. час гроза 10/8 600 м
[Cb calv As op]
+29.0 +28.2 95 +48 +48 опасность
перегрева
997.7 998.0
03 18.07 З 1 4000 м гроза, ливневой дождь 10/4 600 м
[Sc As op Ci fib]
+27.0 +25.6 92 +40 +43 очень
душно
999.4 999.0 +26.0 +33.9 0.3
06 18.07 З 1 4000 м {дождь} 10/1 600 м
[Sc As op Ci fib]
+28.2 +26.5 91 +44 +55 опасность
перегрева
1000.1 1000.0 0.1
09 18.07 З 2 4000 м 9/3 600 м
[Sc diur, vesp As trans]
+30.0 +27.2 85 +48 +54 опасность
перегрева
998.2 998.0 0.1
12 18.07 С 2 4000 м 6/0
[Ac trans Ci fib]
+31.6 +27.5 79 +51 +53 опасность
перегрева
996.9 997.0 +31.6 0.1
15 18.07 ЮВ 1 4000 м 5/5 1000 м
[Sc]
+28.4 +25.0 82 +41 +41 опасность
перегрева
998.6 999.0 0.1
18 18.07 ЮВ 1 4000 м 8/5 600 м
[Sc Ac trans]
+28.0 +24.6 82 +40 +40 очень
душно
999.4 999.0 0.1
21 18.07 ЮВ 1 4000 м гроза, ливневой дождь 10/8 600 м
[Cb cap As op]
+27.4 +26.3 94 +42 +42 опасность
перегрева
999.2 999.0 0.3
00 19.07 ЮВ 1 4000 м {гроза, дождь} 9/8 600 м
[Sc Ac trans]
+27.0 +26.2 95 +41 +41 опасность
перегрева
998.6 999.0 2
03 19.07 штиль 0 2000 м дымка 4/1 600 м
[Sc Ac trans]
+30.0 +27.2 85 +48 +55 опасность
перегрева
999.8 1000.0 +26.1 +31.6 2
06 19.07 штиль 0 2000 м мгла 1/1 600 м
[Cu med, cong]
+34.0 +27.7 70 +54 +79 опасность
перегрева
999.4 999.0
09 19.07 С 1 2000 м мгла 5/5 600 м
[Sc]
+35.0 +27.3 64 +53 +64 опасность
перегрева
996.5 997.0
12 19.07 В 1 2000 м гроза, ливневой дождь {морось} 10/5 600 м
[Sc As op]
+28.0 +26.0 89 +42 +42 опасность
перегрева
997.1 997.0 +35.5 3

 

Местоположение метеостанции Hissar (Haryana, Индия): широта 29.17 долгота 75.73 высота над уровнем моря 221 м.

В архиве по умолчанию представлена погода в Hissar за последнюю неделю. Архивные данные за месяц целиком и за предыдущие месяцы, начиная с января 2011 года, Вы можете получить, выбрав интересующий диапазон дат из раскрывающегося списка и нажав кнопку "Ввод!".


*Определитесь, кто Вы:
робот инопланетянин человек

Внимание! Время в таблицах - всемирное. Для получения местного времени необходимо прибавить поправку, которая в Hissar равна 5.5 ч.

Смотрите также архив погоды в соседних городах и на ближайших метеорологических станциях:

Погода в Rohtak (Haryana, Индия) (91 км)
Погода в Pilani (Rajasthan, Индия) (95 км)
Погода в Churu (Rajasthan, Индия) (129 км)
Погода в Karnal (Haryana, Индия) (139 км)
Погода в Patiala (Punjab, Индия) (147 км)
Погода в New Delhi Airport (Delhi, Индия) (151 км)
Погода в New Delhi Aya Nagar (Delhi, Индия) (157 км)
Погода в New Delhi (Delhi, Индия) (157 км)
Погода в Ridge (Delhi, Индия) (162 км)
Погода в Ambala (Haryana, Индия) (166 км)

Пояснения к столбцам:

Ветер - указаны скорость ветра в м/с - средняя за 10 мин, порывы в срок и между сроками (в фигурных скобках) и направление, откуда дует ветер: С - северный, СВ - северо-восточный, В - восточный, ЮВ - юго-восточный, Ю - южный, ЮЗ - юго-западный, З - западный, СЗ - северо-западный.
Видимость - горизонтальная дальность видимости в метрах или километрах. При видимости от 1 до 10 км при отсутствии осадков обычно наблюдается дымка, при ухудшении видимости до 1 км и менее - туман. В сухую погоду видимость может ухудшаться дымом, пылью или мглою.
Явления - указаны атмосферные явления, наблюдавшиеся в срок или в последний час перед сроком; фигурными скобками обозначены явления, наблюдавшиеся между сроками (за 1-3 часа до срока); квадратными скобками обозначены град или гололедные отложения с указанием их диаметра в мм.
Облачность - указаны через наклонную черту общая и нижняя облачность в баллах и высота нижней границы облаков в метрах; квадратными скобками обозначены формы облаков: Ci - перистые, Cs - перисто-слоистые, Cc - перисто-кучевые, Ac - высококучевые, As - высокослоистые, Sc - слоисто-кучевые, Ns - слоисто-дождевые, Cu - кучевые, Cb - кучево-дождевые. Подробнее классификацию облаков см. в Атласе облаков (PDF).
T - Температура воздуха - температура, измеренная на высоте 2 м над землей.
Td - Температура точки росы - температура, при понижении до которой содержащийся в воздухе водяной пар достигнет насыщения.
f - Относительная влажность воздуха - влажноcть воздуха, измеренная на высоте 2 м над землей.
Te - Эффективная температура - температура, которую ощущает одетый по сезону человек в тени. Характеристика душности погоды. При расчете учитывается влияние влажности воздуха и скорости ветра на теплоощущения человека.
Tes - Эффективная температура на солнце - температура, которую ощущает человек, с поправкой на солнечный нагрев. Характеристика знойности погоды. Зависит от высоты солнца над горизонтом, облачности и скорости ветра. Ночью, в пасмурную погоду, а также при ветре 12 м/с и более поправка равна нулю.
P - Атмосферное давление - приведенное к уровню моря атмосферное давление.
Po - Атмосферное давление - измеренное на уровне метеостанции атмосферное давление.
Tmin - Минимальная температура - минимум температуры воздуха на высоте 2 м над землей.
Tmax - Максимальная температура - максимум температуры воздуха на высоте 2 м над землей.
R - Количество осадков - Количество выпавших осадков за период времени, мм. При наведении курсора мыши на число - период времени, за который выпало указанное количество осадков.
R24 - Количество осадков - Количество выпавших осадков за 24 часа, мм.
S - Снежный покров - Высота снежного покрова, см. При наведении курсора мыши на число - состояние снежного покрова и степень покрытия местности в баллах.